SCP
0 0 0 0 0 0 0 0 0 0 0 0 0 0 0 0 0 0 0 0 -0 -0 -0 -0 -0 -0 0 0 0 0 0 0 0 0 0 0 0 0 -0 0 -0 -0 -0 -0 -0 0 0
0 0 0 0 0 0 0 0 0 0 0 0 0 0 -0 -0 -0 0 0 0 -0 -0 -0 -0 -0 -0 0 0 0 0 0 0 0 0 0 0 0 0 0 -0 -0 -0 0 -0 0 0 0
0 0 0 0 0 0 0 0 0 0 0 0 0 0 -0 -0 -0 -0 -0 0 -0 -0 -0 -0 -0 -0 0 -0 0 0 0 0 0 0 0 0 0 0 -0 0 0 -0 -0 -0 0 0 0
0 0 0 0 0 0 0 0 0 0 0 0 0 0 -0 -0 -0 -0 -0 -0 -0 0 0 0 0 -0 0 0 0 0 0 0 0 0 0 0 0 0 -0 0 0 0 -0 -0 0 0 0
0 0 0 0 0 0 0 0 0 0 0 0 0 0 0 -0 -0 -0 -0 -0 -0 0 0 0 0 0 -0 0 0 0 0 0 0 0 0 0 0 0 0 0 0 0 0 -0 0 0 0
0 0 0 0 0 0 0 0 0 0 0 0 0 -0 -0 -0 -0 -0 -0 -0 0 0 0 0 0 0 0 0 0 0 0 0 0 0 0 0 0 0 0 0 0 0 -0 0 -0 0 0
0 0 0 0 0 0 0 0 0 0 0 0 0 0 0 0 0 0 0 0 0 0 0 0 0 0 0 0 -0 0 0 0 0 0 0 0 0 0 0 0 0 0 0 0 0 0 0
-0 0 0 0 0 0 0 0 0 0 0 0 0 0 0 0 0 0 0 0 0 -0 0 0 0 0 -0 0 0 0 0 0 0 0 0 0 0 0 0 0 0 0 0 -0 -0 -0 0
-0 -0 0 0 0 0 0 0 0 0 0 0 0 -0 0 0 0 0 0 0 0 0 0 -0 0 -0 0 0 0 0 0 -0 0 0 0 0 0 0 0 0 -0 0 0 0 -0 0 0
-0 -0 -0 -0 0 0 0 -0 -0 -0 -0 -0 -0 -0 0 0 0 0 0 0 0 0 0 0 0 0 0 0 -0 0 -0 0 0 0 0 0 0 0 0 0 0 0 0 0 0 0 0
-0 -0 -0 -0 -0 -0 -0 -0 -0 -0 0 0 -0 -0 -0 0 0 0 0 0 0 0 0 -0 0 0 0 -0 0 0 0 0 0 0 0 0 0 -0 -0 0 0 0 0 -0 0 0 0
-0 -0 -0 -0 -0 -0 -0 -0 -0 -0 -0 -0 -0 -0 0 0 0 0 0 0 0 0 0 0 0 -0 -0 -0 0 -0 -0 0 0 0 0 0 0 0 0 -0 0 0 0 0 0 0 0
-0 -0 -0 -0 -0 -0 -0 -0 -0 -0 0 0 0 0 0 0 0 0 0 0 0 0 0 -0 -0 0 -0 -0 0 -0 -0 -0 -0 0 0 0 0 -0 0 0 0 0 0 0 0 0 0
-0 -0 -0 -0 -0 -0 -0 -0 -0 -0 -0 -0 -0 -0 0 0 0 0 0 0 0 0 -0 0 -0 0 -0 -0 -0 -0 0 -0 0 0 0 -0 -0 -0 0 -0 0 0 -0 0 0 -0 -0
-0 -0 -0 -0 -0 -0 -0 -0 -0 -0 -0 -0 -0 0 0 0 0 0 0 0 -0 0 0 0 0 0 -0 -0 -0 0 0 -0 -0 -0 0 -0 -0 0 0 -0 0 -0 0 0 0 0 0
-0 -0 -0 -0 -0 -0 -0 -0 -0 -0 -0 -0 0 0 0 0 0 0 0 0 -0 -0 -0 0 0 -0 -0 -0 0 0 -0 0 0 0 0 0 0 0 0 -0 0 0 0 0 0 0 -0
-0 -0 -0 -0 -0 -0 -0 -0 -0 -0 -0 0 0 0 0 0 0 0 0 0 -0 -0 0 0 0 0 0 -0 -0 0 -0 -0 -0 0 0 0 0 -0 0 0 -0 0 0 0 0 0 0
-0 -0 -0 -0 -0 -0 -0 -0 -0 -0 -0 0 0 0 0 0 0 0 -0 0 0 -0 -0 0 0 0 -0 -0 -0 -0 -0 -0 -0 -0 -0 0 0 0 0 0 0 0 0 0 0 0 0
-0 -0 -0 -0 -0 -0 -0 -0 -0 -0 0 0 0 0 0 0 0 0 0 0 0 0 0 0 0 0 0 -0 0 0 0 -0 0 0 0 0 0 0 0 0 0 0 0 0 0 0 0
-0 -0 -0 -0 -0 -0 -0 -0 -0 -0 0 0 0 0 0 0 0 0 0 0 0 0 0 0 0 0 -0 0 0 0 0 0 0 0 0 0 0 0 0 0 0 0 0 0 0 0 0
-0 -0 -0 -0 -0 -0 -0 -0 -0 -0 -0 0 0 0 0 0 0 0 0 0 0 0 0 -0 -0 -0 -0 0 0 0 0 0 0 0 0 0 0 0 0 0 -0 0 0 0 0 0 0
0 -0 -0 -0 -0 -0 -0 -0 -0 -0 -0 0 0 0 0 0 0 0 0 0 0 0 0 0 0 0 0 0 0 0 0 0 0 0 0 0 0 0 0 0 0 0 0 0 0 0 0
0 0 -0 -0 -0 -0 -0 -0 -0 -0 -0 0 0 0 0 0 0 0 0 0 0 -0 -0 -0 0 0 0 0 0 0 0 0 0 0 0 0 0 0 0 0 0 0 0 0 0 0 0
-0 0 0 -0 -0 -0 -0 -0 -0 -0 -0 0 0 -0 -0 0 0 1 0 0 0 0 0 -0 0 0 0 0 0 0 0 0 0 0 0 0 0 0 0 0 0 0 0 0 0 0 0
-0 0 0 -0 -0 -0 -0 -0 -0 -0 -0 0 0 0 -0 0 0 0 0 0 0 0 0 0 0 0 0 0 0 0 0 0 0 0 0 0 -0 0 0 0 0 0 0 0 0 0 0
-0 0 0 0 -0 -0 -0 -0 -0 -0 -0 0 -0 -0 -0 0 0 0 0 0 0 0 0 0 0 0 0 0 0 0 0 0 0 0 -0 0 0 0 0 0 0 0 0 0 0 0 0
-0 0 0 0 0 -0 -0 -0 -0 -0 -0 0 0 -0 -0 0 0 0 0 0 0 0 0 0 0 0 0 0 0 0 0 0 0 0 0 0 0 0 0 0 0 0 0 0 0 0 0
-0 0 0 0 0 0 -0 -0 -0 -0 -0 0 0 0 0 0 0 0 0 0 0 0 -0 0 0 0 0 0 -0 0 0 0 0 0 0 0 0 0 0 0 0 0 0 0 0 0 0
0 0 0 0 0 0 0 0 -0 -0 -0 -0 0 0 0 0 0 0 0 0 0 -0 0 0 0 0 0 -0 0 0 0 0 0 0 0 0 0 0 0 0 0 0 0 0 0 0 0
Wind_Speed_500mb
28 27 27 26 27 27 27 27 27 26 26 24 21 19 18 19 19 20 20 21 20 20 20 21 20 21 22 16 30 6 11 15 16 21 26 32 44 44 7 2 7 7 15 38 46 59 48
29 29 28 27 27 28 28 28 28 28 28 28 25 21 19 18 19 20 20 20 20 20 21 21 21 22 20 16 22 16 20 15 19 23 30 38 42 47 14 12 9 22 15 57 47 37 49
30 29 29 28 28 28 29 30 30 30 30 29 28 26 21 19 19 20 20 19 18 19 20 21 21 23 26 43 13 15 18 20 21 26 34 33 36 34 18 9 20 22 36 25 29 29 25
31 30 29 29 29 28 29 30 31 32 32 31 30 29 24 19 18 19 18 18 18 16 18 19 19 24 25 27 27 36 19 15 12 18 26 27 30 43 8 24 17 12 25 12 11 21 26
31 31 31 30 30 30 30 31 32 32 33 32 31 31 27 20 18 18 17 17 16 15 17 17 16 15 26 15 26 35 23 15 11 15 22 32 40 25 22 7 11 7 10 15 11 20 15
33 32 31 31 31 31 31 32 32 33 33 33 32 32 28 21 17 16 16 15 14 15 16 16 19 14 20 18 20 49 35 20 20 29 36 21 18 7 11 10 7 3 9 9 15 17 6
36 34 33 32 32 31 32 32 33 34 33 34 32 33 29 20 16 14 14 11 10 4 13 21 13 23 37 17 11 23 20 35 31 28 9 29 6 10 19 11 12 20 9 8 12 20 11
39 36 35 34 34 33 31 32 33 34 34 33 33 33 28 19 14 13 14 11 5 6 18 28 43 53 52 47 22 29 30 23 10 11 5 10 9 20 17 13 14 8 21 11 4 24 10
42 40 36 36 36 35 33 33 34 34 35 34 33 33 27 16 11 12 17 18 15 28 8 26 42 45 43 11 23 32 40 42 8 7 10 10 22 11 12 18 4 10 9 15 20 9 4
45 43 40 38 38 37 35 34 35 35 35 35 35 32 23 11 7 9 4 9 6 5 8 14 16 21 30 23 14 23 36 28 8 17 11 12 24 11 12 21 9 13 10 5 6 10 9
47 48 45 41 40 39 37 36 35 35 36 36 35 30 19 13 6 14 10 9 7 1 6 8 10 9 25 24 7 22 33 29 20 15 13 19 9 9 18 26 5 22 13 10 1 7 5
47 50 50 46 43 42 39 37 37 36 36 38 37 26 16 17 21 7 3 4 11 10 10 6 18 13 11 16 19 29 34 41 25 6 6 18 21 13 18 31 15 7 2 15 11 7 7
47 50 52 51 46 44 43 39 38 38 38 38 35 21 16 19 15 14 5 4 9 6 12 9 12 12 12 12 8 11 13 12 12 5 10 15 15 12 12 6 12 9 13 7 9 9 13
44 49 53 54 51 48 46 42 40 40 40 38 30 18 20 19 23 14 9 9 6 9 13 6 10 12 15 10 12 14 14 13 11 11 7 3 15 3 4 16 16 8 17 12 11 7 8
41 46 51 54 54 52 49 46 44 42 44 37 22 18 21 17 33 17 8 4 13 14 6 14 9 11 8 10 10 13 19 20 17 16 16 7 13 16 11 9 20 15 3 12 9 4 6
37 42 47 52 55 54 52 50 48 43 44 32 18 19 16 25 40 22 7 11 12 7 12 14 6 9 16 12 13 9 17 17 18 24 24 17 8 10 10 13 10 7 5 5 7 2 3
35 39 44 50 54 56 55 53 51 44 42 21 12 10 12 29 40 12 7 13 15 20 23 9 11 10 21 17 20 16 22 17 38 17 30 13 8 12 13 5 7 12 9 10 10 10 10
34 38 42 47 51 54 56 54 52 48 40 17 5 3 35 40 10 7 5 7 13 26 55 17 13 21 17 20 16 22 28 24 54 48 13 10 11 4 7 7 5 12 8 10 10 13 4
34 36 40 46 48 51 54 53 50 47 44 22 8 5 44 42 6 6 12 13 15 30 28 12 11 22 16 15 13 14 12 20 29 14 19 12 5 6 17 12 4 10 5 8 7 3 7
33 34 38 44 47 49 51 52 47 42 37 15 2 6 13 43 22 7 4 18 14 28 26 32 16 9 4 13 10 13 15 4 37 23 22 25 9 16 13 12 0 5 4 5 14 5 2
32 32 36 42 45 47 48 50 47 43 28 5 1 3 6 5 12 13 9 13 29 18 17 7 8 3 9 8 7 11 8 12 18 23 10 11 10 7 10 8 6 4 3 9 9 11 10
30 32 36 39 42 45 46 48 47 43 23 14 8 8 10 11 26 12 12 14 23 16 11 12 14 13 21 14 6 7 3 10 3 14 11 9 2 6 9 7 12 3 8 7 3 13 5
28 32 36 37 40 42 43 44 46 42 34 9 11 7 7 7 11 9 5 16 17 20 7 14 6 4 18 8 24 31 32 16 10 8 5 8 12 8 5 7 8 11 8 9 4 4 18
27 30 34 36 37 38 39 39 41 42 37 30 17 15 8 7 5 9 16 18 17 5 8 3 27 7 9 25 19 14 26 35 26 8 15 8 8 4 6 6 5 15 13 12 7 9 19
28 29 33 33 33 34 37 35 36 36 33 22 11 11 9 6 10 18 31 10 32 14 10 9 12 14 6 5 10 12 12 16 25 28 18 10 9 6 9 7 8 8 14 9 13 6 4
28 32 30 28 32 30 33 33 33 33 30 18 9 13 5 6 12 18 15 14 4 8 13 17 12 10 18 7 8 6 7 8 9 8 18 11 9 10 6 7 4 11 17 11 18 8 7
29 33 28 25 26 28 29 32 30 31 29 22 7 11 5 10 16 11 8 12 9 9 6 8 21 11 13 5 6 6 6 1 8 2 9 9 7 11 5 4 8 10 21 2 13 11 12
29 30 27 26 24 23 26 31 29 28 28 21 3 4 13 10 42 22 8 9 16 7 9 6 4 8 2 6 6 8 7 12 10 10 7 3 7 4 5 7 7 7 8 14 17 30 57
28 29 25 26 23 23 25 28 32 28 26 24 10 15 21 27 35 36 48 35 37 12 16 7 17 5 10 6 4 5 6 2 7 10 4 5 11 10 11 10 9 8 44 74 71 70 59
Wind_Direction_500mb
9 8 7 6 3 2 360 358 356 354 351 347 339 323 304 289 281 277 277 279 282 284 287 291 296 299 308 286 257 239 291 317 293 277 294 312 310 306 260 114 296 187 167 131 130 128 132
4 2 1 -0 359 357 356 355 353 352 350 346 343 332 314 297 286 279 275 275 279 282 285 288 293 294 293 270 250 272 262 294 290 301 301 308 302 318 102 271 138 199 130 137 141 135 130
358 358 355 353 353 352 351 349 349 349 348 346 342 337 324 303 288 281 278 275 274 275 280 285 291 292 277 254 226 241 252 282 286 285 296 313 308 328 349 308 286 188 112 115 138 139 122
355 352 352 349 347 347 346 345 345 344 344 344 342 338 329 308 290 282 280 277 271 268 272 280 289 292 267 271 260 250 246 258 259 279 285 293 313 316 346 317 318 156 123 138 236 159 160
355 352 348 345 343 343 342 341 341 341 341 341 339 337 331 312 292 280 278 274 268 260 262 271 282 278 268 261 230 216 226 267 291 261 271 284 297 304 326 57 10 8 179 136 176 249 136
357 352 348 344 341 340 338 337 338 338 338 338 337 336 331 313 292 279 274 271 266 261 263 268 252 294 254 285 211 213 223 261 271 290 305 315 301 29 354 75 269 173 233 166 172 196 160
359 354 350 345 341 338 336 335 334 335 336 335 334 333 330 313 291 277 269 269 282 269 277 235 252 234 282 314 251 216 215 228 249 287 291 313 35 264 257 190 238 219 202 219 192 176 132
0 355 351 348 343 339 336 334 333 332 332 333 331 331 327 310 288 273 257 231 174 6 297 281 258 263 270 272 295 263 222 207 216 234 12 354 278 247 248 263 285 296 247 244 314 163 141
2 357 353 350 347 341 337 334 332 331 330 330 330 328 324 306 283 261 255 270 263 298 281 281 248 245 251 250 243 261 196 207 198 222 251 178 251 303 284 315 332 258 213 211 188 159 19
4 1 356 351 348 344 339 335 333 331 329 329 328 326 318 294 266 237 55 72 210 268 30 274 187 237 236 242 283 230 205 194 219 211 235 233 265 238 247 266 249 299 277 337 115 111 200
6 5 0 355 350 347 341 336 334 331 329 328 327 322 304 240 205 187 3 26 300 107 354 227 181 217 199 188 204 220 212 208 215 233 107 247 264 243 219 233 204 247 241 237 89 118 93
6 6 4 359 353 349 344 339 335 333 329 328 326 315 283 244 222 176 189 43 142 45 261 263 153 180 124 202 247 185 205 218 244 226 241 240 263 188 224 246 201 256 231 42 50 76 359
5 5 5 2 356 351 347 342 337 334 328 326 322 304 261 233 203 198 185 48 55 162 316 198 181 140 165 208 237 166 189 224 192 104 297 318 280 266 190 198 339 95 54 1 358 0 228
1 3 4 3 359 354 350 345 340 336 329 326 315 292 258 225 180 191 205 59 210 254 259 263 139 141 178 168 228 188 142 206 248 108 67 219 315 250 257 172 200 213 155 157 202 204 257
357 0 2 1 360 355 351 347 344 341 332 330 314 294 268 197 186 184 161 136 213 219 319 355 67 147 263 212 163 148 175 194 221 164 170 189 270 284 228 174 133 266 192 190 121 123 77
352 356 358 359 359 356 353 350 347 347 341 338 329 307 268 188 179 176 92 229 240 218 18 12 338 197 205 227 158 147 173 215 221 207 175 231 275 245 304 47 14 150 176 28 10 138 349
345 351 354 356 357 356 354 353 349 352 350 351 345 324 144 166 166 165 204 226 280 291 336 338 292 258 240 207 182 196 198 248 203 221 164 162 131 290 52 44 159 6 10 39 118 135 161
340 345 349 352 354 354 355 354 352 352 360 347 339 2 165 159 127 200 220 238 302 301 299 274 248 249 226 205 176 198 206 203 205 212 170 188 140 120 175 191 328 113 154 108 104 297 91
333 340 346 350 351 353 355 356 355 351 355 1 342 297 179 178 152 255 274 272 257 276 283 300 283 293 262 205 190 170 188 265 160 130 173 177 40 42 353 6 19 72 66 135 122 94 19
329 336 343 348 351 352 353 358 357 349 344 339 11 13 169 215 231 174 306 288 266 256 259 269 281 272 43 33 32 163 153 20 105 109 122 92 122 144 177 210 312 23 40 112 111 83 272
324 331 339 345 349 351 352 357 358 353 353 25 184 276 41 284 286 257 190 269 290 308 316 298 22 314 186 66 57 12 19 15 35 11 66 96 142 127 113 124 122 233 299 287 115 194 170
323 326 333 340 346 350 353 357 358 5 4 32 31 30 332 282 275 258 204 243 258 304 331 356 108 317 80 82 136 87 252 60 280 348 62 12 176 90 30 33 25 2 284 274 258 103 62
322 323 327 333 340 348 352 356 358 5 17 21 348 315 276 305 330 352 261 248 208 192 152 123 236 44 55 117 116 111 94 126 167 139 89 88 134 96 238 17 7 9 243 212 190 199 154
310 315 318 324 334 342 349 353 357 1 8 11 4 3 6 292 4 292 295 27 45 79 186 80 46 34 20 119 109 62 29 33 34 48 115 88 94 112 132 34 97 239 285 128 111 78 113
300 307 308 318 328 335 344 348 352 357 360 17 38 20 5 298 261 306 338 23 44 67 22 34 70 2 157 89 33 41 7 6 357 332 332 98 96 73 125 172 276 348 333 143 132 25 128
298 296 304 313 324 329 338 342 346 351 355 12 78 37 321 276 237 337 310 2 59 25 8 350 14 357 11 67 63 96 135 221 145 219 293 42 130 113 112 140 133 243 300 117 120 24 44
293 295 303 308 318 323 331 340 340 345 352 357 113 3 337 273 281 24 349 314 19 50 91 338 326 344 43 25 23 142 197 357 170 113 325 330 14 116 90 138 273 270 293 32 87 221 66
284 292 296 300 309 317 326 336 335 339 344 356 240 325 345 274 288 277 219 323 352 76 119 274 331 14 156 110 169 245 149 216 113 183 141 325 113 196 84 99 259 267 356 109 157 110 108
278 284 289 296 302 309 319 328 335 331 336 340 332 288 283 269 269 278 278 262 254 180 100 249 143 115 301 22 191 213 71 92 126 163 153 194 188 170 158 206 223 74 125 135 131 124 115
Wind_Speed_850mb
28 27 27 26 27 27 27 27 27 26 26 24 21 19 18 19 19 20 20 21 20 20 20 21 20 21 22 16 30 6 11 15 16 21 26 32 44 44 7 2 7 7 15 38 46 59 48
29 29 28 27 27 28 28 28 28 28 28 28 25 21 19 18 19 20 20 20 20 20 21 21 21 22 20 16 22 16 20 15 19 23 30 38 42 47 14 12 9 22 15 57 47 37 49
30 29 29 28 28 28 29 30 30 30 30 29 28 26 21 19 19 20 20 19 18 19 20 21 21 23 26 43 13 15 18 20 21 26 34 33 36 34 18 9 20 22 36 25 29 29 25
31 30 29 29 29 28 29 30 31 32 32 31 30 29 24 19 18 19 18 18 18 16 18 19 19 24 25 27 27 36 19 15 12 18 26 27 30 43 8 24 17 12 25 12 11 21 26
31 31 31 30 30 30 30 31 32 32 33 32 31 31 27 20 18 18 17 17 16 15 17 17 16 15 26 15 26 35 23 15 11 15 22 32 40 25 22 7 11 7 10 15 11 20 15
33 32 31 31 31 31 31 32 32 33 33 33 32 32 28 21 17 16 16 15 14 15 16 16 19 14 20 18 20 49 35 20 20 29 36 21 18 7 11 10 7 3 9 9 15 17 6
36 34 33 32 32 31 32 32 33 34 33 34 32 33 29 20 16 14 14 11 10 4 13 21 13 23 37 17 11 23 20 35 31 28 9 29 6 10 19 11 12 20 9 8 12 20 11
39 36 35 34 34 33 31 32 33 34 34 33 33 33 28 19 14 13 14 11 5 6 18 28 43 53 52 47 22 29 30 23 10 11 5 10 9 20 17 13 14 8 21 11 4 24 10
42 40 36 36 36 35 33 33 34 34 35 34 33 33 27 16 11 12 17 18 15 28 8 26 42 45 43 11 23 32 40 42 8 7 10 10 22 11 12 18 4 10 9 15 20 9 4
45 43 40 38 38 37 35 34 35 35 35 35 35 32 23 11 7 9 4 9 6 5 8 14 16 21 30 23 14 23 36 28 8 17 11 12 24 11 12 21 9 13 10 5 6 10 9
47 48 45 41 40 39 37 36 35 35 36 36 35 30 19 13 6 14 10 9 7 1 6 8 10 9 25 24 7 22 33 29 20 15 13 19 9 9 18 26 5 22 13 10 1 7 5
47 50 50 46 43 42 39 37 37 36 36 38 37 26 16 17 21 7 3 4 11 10 10 6 18 13 11 16 19 29 34 41 25 6 6 18 21 13 18 31 15 7 2 15 11 7 7
47 50 52 51 46 44 43 39 38 38 38 38 35 21 16 19 15 14 5 4 9 6 12 9 12 12 12 12 8 11 13 12 12 5 10 15 15 12 12 6 12 9 13 7 9 9 13
44 49 53 54 51 48 46 42 40 40 40 38 30 18 20 19 23 14 9 9 6 9 13 6 10 12 15 10 12 14 14 13 11 11 7 3 15 3 4 16 16 8 17 12 11 7 8
41 46 51 54 54 52 49 46 44 42 44 37 22 18 21 17 33 17 8 4 13 14 6 14 9 11 8 10 10 13 19 20 17 16 16 7 13 16 11 9 20 15 3 12 9 4 6
37 42 47 52 55 54 52 50 48 43 44 32 18 19 16 25 40 22 7 11 12 7 12 14 6 9 16 12 13 9 17 17 18 24 24 17 8 10 10 13 10 7 5 5 7 2 3
35 39 44 50 54 56 55 53 51 44 42 21 12 10 12 29 40 12 7 13 15 20 23 9 11 10 21 17 20 16 22 17 38 17 30 13 8 12 13 5 7 12 9 10 10 10 10
34 38 42 47 51 54 56 54 52 48 40 17 5 3 35 40 10 7 5 7 13 26 55 17 13 21 17 20 16 22 28 24 54 48 13 10 11 4 7 7 5 12 8 10 10 13 4
34 36 40 46 48 51 54 53 50 47 44 22 8 5 44 42 6 6 12 13 15 30 28 12 11 22 16 15 13 14 12 20 29 14 19 12 5 6 17 12 4 10 5 8 7 3 7
33 34 38 44 47 49 51 52 47 42 37 15 2 6 13 43 22 7 4 18 14 28 26 32 16 9 4 13 10 13 15 4 37 23 22 25 9 16 13 12 0 5 4 5 14 5 2
32 32 36 42 45 47 48 50 47 43 28 5 1 3 6 5 12 13 9 13 29 18 17 7 8 3 9 8 7 11 8 12 18 23 10 11 10 7 10 8 6 4 3 9 9 11 10
30 32 36 39 42 45 46 48 47 43 23 14 8 8 10 11 26 12 12 14 23 16 11 12 14 13 21 14 6 7 3 10 3 14 11 9 2 6 9 7 12 3 8 7 3 13 5
28 32 36 37 40 42 43 44 46 42 34 9 11 7 7 7 11 9 5 16 17 20 7 14 6 4 18 8 24 31 32 16 10 8 5 8 12 8 5 7 8 11 8 9 4 4 18
27 30 34 36 37 38 39 39 41 42 37 30 17 15 8 7 5 9 16 18 17 5 8 3 27 7 9 25 19 14 26 35 26 8 15 8 8 4 6 6 5 15 13 12 7 9 19
28 29 33 33 33 34 37 35 36 36 33 22 11 11 9 6 10 18 31 10 32 14 10 9 12 14 6 5 10 12 12 16 25 28 18 10 9 6 9 7 8 8 14 9 13 6 4
28 32 30 28 32 30 33 33 33 33 30 18 9 13 5 6 12 18 15 14 4 8 13 17 12 10 18 7 8 6 7 8 9 8 18 11 9 10 6 7 4 11 17 11 18 8 7
29 33 28 25 26 28 29 32 30 31 29 22 7 11 5 10 16 11 8 12 9 9 6 8 21 11 13 5 6 6 6 1 8 2 9 9 7 11 5 4 8 10 21 2 13 11 12
29 30 27 26 24 23 26 31 29 28 28 21 3 4 13 10 42 22 8 9 16 7 9 6 4 8 2 6 6 8 7 12 10 10 7 3 7 4 5 7 7 7 8 14 17 30 57
28 29 25 26 23 23 25 28 32 28 26 24 10 15 21 27 35 36 48 35 37 12 16 7 17 5 10 6 4 5 6 2 7 10 4 5 11 10 11 10 9 8 44 74 71 70 59
Wind_Direction_850mb
9 8 7 6 3 2 360 358 356 354 351 347 339 323 304 289 281 277 277 279 282 284 287 291 296 299 308 286 257 239 291 317 293 277 294 312 310 306 260 114 296 187 167 131 130 128 132
4 2 1 -0 359 357 356 355 353 352 350 346 343 332 314 297 286 279 275 275 279 282 285 288 293 294 293 270 250 272 262 294 290 301 301 308 302 318 102 271 138 199 130 137 141 135 130
358 358 355 353 353 352 351 349 349 349 348 346 342 337 324 303 288 281 278 275 274 275 280 285 291 292 277 254 226 241 252 282 286 285 296 313 308 328 349 308 286 188 112 115 138 139 122
355 352 352 349 347 347 346 345 345 344 344 344 342 338 329 308 290 282 280 277 271 268 272 280 289 292 267 271 260 250 246 258 259 279 285 293 313 316 346 317 318 156 123 138 236 159 160
355 352 348 345 343 343 342 341 341 341 341 341 339 337 331 312 292 280 278 274 268 260 262 271 282 278 268 261 230 216 226 267 291 261 271 284 297 304 326 57 10 8 179 136 176 249 136
357 352 348 344 341 340 338 337 338 338 338 338 337 336 331 313 292 279 274 271 266 261 263 268 252 294 254 285 211 213 223 261 271 290 305 315 301 29 354 75 269 173 233 166 172 196 160
359 354 350 345 341 338 336 335 334 335 336 335 334 333 330 313 291 277 269 269 282 269 277 235 252 234 282 314 251 216 215 228 249 287 291 313 35 264 257 190 238 219 202 219 192 176 132
0 355 351 348 343 339 336 334 333 332 332 333 331 331 327 310 288 273 257 231 174 6 297 281 258 263 270 272 295 263 222 207 216 234 12 354 278 247 248 263 285 296 247 244 314 163 141
2 357 353 350 347 341 337 334 332 331 330 330 330 328 324 306 283 261 255 270 263 298 281 281 248 245 251 250 243 261 196 207 198 222 251 178 251 303 284 315 332 258 213 211 188 159 19
4 1 356 351 348 344 339 335 333 331 329 329 328 326 318 294 266 237 55 72 210 268 30 274 187 237 236 242 283 230 205 194 219 211 235 233 265 238 247 266 249 299 277 337 115 111 200
6 5 0 355 350 347 341 336 334 331 329 328 327 322 304 240 205 187 3 26 300 107 354 227 181 217 199 188 204 220 212 208 215 233 107 247 264 243 219 233 204 247 241 237 89 118 93
6 6 4 359 353 349 344 339 335 333 329 328 326 315 283 244 222 176 189 43 142 45 261 263 153 180 124 202 247 185 205 218 244 226 241 240 263 188 224 246 201 256 231 42 50 76 359
5 5 5 2 356 351 347 342 337 334 328 326 322 304 261 233 203 198 185 48 55 162 316 198 181 140 165 208 237 166 189 224 192 104 297 318 280 266 190 198 339 95 54 1 358 0 228
1 3 4 3 359 354 350 345 340 336 329 326 315 292 258 225 180 191 205 59 210 254 259 263 139 141 178 168 228 188 142 206 248 108 67 219 315 250 257 172 200 213 155 157 202 204 257
357 0 2 1 360 355 351 347 344 341 332 330 314 294 268 197 186 184 161 136 213 219 319 355 67 147 263 212 163 148 175 194 221 164 170 189 270 284 228 174 133 266 192 190 121 123 77
352 356 358 359 359 356 353 350 347 347 341 338 329 307 268 188 179 176 92 229 240 218 18 12 338 197 205 227 158 147 173 215 221 207 175 231 275 245 304 47 14 150 176 28 10 138 349
345 351 354 356 357 356 354 353 349 352 350 351 345 324 144 166 166 165 204 226 280 291 336 338 292 258 240 207 182 196 198 248 203 221 164 162 131 290 52 44 159 6 10 39 118 135 161
340 345 349 352 354 354 355 354 352 352 360 347 339 2 165 159 127 200 220 238 302 301 299 274 248 249 226 205 176 198 206 203 205 212 170 188 140 120 175 191 328 113 154 108 104 297 91
333 340 346 350 351 353 355 356 355 351 355 1 342 297 179 178 152 255 274 272 257 276 283 300 283 293 262 205 190 170 188 265 160 130 173 177 40 42 353 6 19 72 66 135 122 94 19
329 336 343 348 351 352 353 358 357 349 344 339 11 13 169 215 231 174 306 288 266 256 259 269 281 272 43 33 32 163 153 20 105 109 122 92 122 144 177 210 312 23 40 112 111 83 272
324 331 339 345 349 351 352 357 358 353 353 25 184 276 41 284 286 257 190 269 290 308 316 298 22 314 186 66 57 12 19 15 35 11 66 96 142 127 113 124 122 233 299 287 115 194 170
323 326 333 340 346 350 353 357 358 5 4 32 31 30 332 282 275 258 204 243 258 304 331 356 108 317 80 82 136 87 252 60 280 348 62 12 176 90 30 33 25 2 284 274 258 103 62
322 323 327 333 340 348 352 356 358 5 17 21 348 315 276 305 330 352 261 248 208 192 152 123 236 44 55 117 116 111 94 126 167 139 89 88 134 96 238 17 7 9 243 212 190 199 154
310 315 318 324 334 342 349 353 357 1 8 11 4 3 6 292 4 292 295 27 45 79 186 80 46 34 20 119 109 62 29 33 34 48 115 88 94 112 132 34 97 239 285 128 111 78 113
300 307 308 318 328 335 344 348 352 357 360 17 38 20 5 298 261 306 338 23 44 67 22 34 70 2 157 89 33 41 7 6 357 332 332 98 96 73 125 172 276 348 333 143 132 25 128
298 296 304 313 324 329 338 342 346 351 355 12 78 37 321 276 237 337 310 2 59 25 8 350 14 357 11 67 63 96 135 221 145 219 293 42 130 113 112 140 133 243 300 117 120 24 44
293 295 303 308 318 323 331 340 340 345 352 357 113 3 337 273 281 24 349 314 19 50 91 338 326 344 43 25 23 142 197 357 170 113 325 330 14 116 90 138 273 270 293 32 87 221 66
284 292 296 300 309 317 326 336 335 339 344 356 240 325 345 274 288 277 219 323 352 76 119 274 331 14 156 110 169 245 149 216 113 183 141 325 113 196 84 99 259 267 356 109 157 110 108
278 284 289 296 302 309 319 328 335 331 336 340 332 288 283 269 269 278 278 262 254 180 100 249 143 115 301 22 191 213 71 92 126 163 153 194 188 170 158 206 223 74 125 135 131 124 115